C/2019 H1 ( NEOWISE )

Japanese version
Home page
Updated on July 13, 2019

---------------------------------------------------------------------

* Profile

Discovery Date April 18, 2019
Magnitude 18 mag
Discoverer Near-Earth Object Wide-field Infrared Survey Explorer

* Pictures

* Orbital Elements

Epoch 2019 Apr. 27.0 TT = JDT 2458600.5
T 2019 Apr. 27.73511 TT                                 MPCW
q   1.8447639            (2000.0)            P               Q
z  +0.0042571      Peri.   19.28160     -0.09653530     -0.23287744
 +/-0.0001262      Node   269.18514     -0.99196678     -0.05734256
e   0.9921466      Incl.  104.57915     -0.08174872     +0.97081406
From 107 observations 2019 Apr. 9-May 31, mean residual 0".5.

* Magnitudes Graph

        m1 = 15.0 + 5 log d + 10.0 log r

---------------------------------------------------------------------

The orbital elements are published on M.P.E.C. 2019-L24.
The magnitudes graphs are made with Comet for Windows.

---------------------------------------------------------------------

Copyright(C) Seiichi Yoshida (comet@aerith.net). All rights reserved.